[[{"header":{"parameterUnit":"m.s-1","parameterCategory":1,"la1":30.2991,"la2":30.254,"lo1":-89.0895,"lo2":-89.0444,"dy":0.0017,"dx":0.0017,"nx":28,"ny":28,"refTime":"2025-03-19T09:00:00:Z","depth":0,"parameterNumber":2,"parameterNumberName":"U-component_of_WINDS"},"data":[0,0,0,0,0,0,0,0,0,0,0,0,0,0,0,0,0,0,0,0,0,0,0,0,0,0,0,0,0,0,0,0,0,0,0,0,0,0,0,0,0,0,0,0,0,0,0,0,0,0,0,0,0,0,0,0,0,0,6.5393,6.5395,0,6.5516,6.5518,6.5519,6.5456,6.5453,6.545,6.5447,6.5571,6.5577,6.5583,0,0,0,0,0,0,0,0,0,0,0,0,0,6.5104,6.5109,6.5393,6.5395,6.5396,6.5516,6.5518,6.552,6.5457,6.5453,6.5449,6.5445,6.5569,6.5576,6.5584,0,0,0,0,0,0,0,0,0,0,0,0,0,6.5228,6.5111,6.5393,6.538,6.538,6.5516,6.5518,6.552,6.5458,6.5453,6.5448,6.5443,6.5566,6.5575,6.5585,6.5741,0,0,6.5614,6.5618,0,0,0,0,0,0,0,0,6.5221,6.5239,6.538,6.5381,6.5381,6.5466,6.5461,6.5594,6.5459,6.5428,6.5446,6.5441,6.554,6.5551,6.5585,6.5747,6.5752,6.5615,6.562,6.5624,6.5627,0,0,0,0,0,0,0,6.5213,6.5234,6.5442,6.5382,6.5383,6.5367,6.538,6.5486,6.551,6.543,6.5426,6.5441,6.5539,6.5576,6.5587,6.5754,6.5614,6.5623,6.5629,6.5632,6.6052,6.6057,0,0,0,0,0,0,6.5205,6.5227,6.5438,6.5446,6.5288,6.5376,6.539,6.5444,6.5508,6.5513,6.5445,6.5438,6.5562,6.5576,6.5591,6.578,6.5624,6.5633,6.5639,6.6047,6.6053,6.6059,0,0,0,0,0,0,6.5199,6.5225,6.5433,6.5335,6.5361,6.5387,6.5447,6.5449,6.5485,6.552,6.5523,6.5479,6.5559,6.5578,6.5705,6.5783,6.5638,6.5646,6.604,6.6049,6.6056,6.6157,0,0,0,0,0,0,6.5191,6.5223,6.5282,6.5337,6.5366,6.5545,6.5452,6.5455,6.5502,6.5493,6.5552,6.5557,6.5556,6.5691,6.5714,6.5793,6.5654,6.6033,6.6044,6.6054,6.6147,6.6168,6.6185,0,0,0,0,0,6.5181,6.5305,6.5286,6.5311,6.5441,6.5549,6.5566,6.5563,6.5509,6.5569,6.5591,6.5555,6.5771,6.5704,6.573,6.5813,6.6029,6.6041,6.6053,6.6138,6.6163,6.6185,0,0,0,0,0,0,6.5257,6.5312,6.5291,6.5436,6.5489,6.5539,6.5614,6.559,6.5658,6.5647,6.5641,6.5654,6.5787,6.5812,6.5738,6.5969,6.5891,6.5909,6.5947,6.5972,6.599,6.5981,6.5661,0,0,0,0,0,6.5291,6.5375,6.5418,6.5542,6.557,6.5588,6.5635,6.5628,6.5682,6.5704,6.5736,6.5789,6.5869,6.5922,6.5997,6.6151,6.6163,6.6221,6.624,6.6256,6.6271,6.6356,6.6382,6.61,6.61,6.6099,0,0,6.5362,6.5402,6.5455,6.5558,6.5598,6.5686,6.5607,6.5702,6.5766,6.5718,6.584,6.5866,6.5925,6.6067,6.613,6.6092,6.6352,6.6271,6.6284,6.6291,6.6371,6.6398,6.6422,6.6108,6.6107,6.6105,0,0,6.5535,6.5573,6.5682,6.5724,6.5786,6.5798,6.5824,6.5879,6.5894,6.6017,6.5983,6.606,6.6197,6.6242,6.6282,6.6475,6.6445,6.65,6.6601,6.6683,6.6706,6.6725,6.6795,6.682,6.6515,6.6516,6.6516,0,6.5614,6.5744,6.574,6.5839,6.5886,6.5848,6.5958,6.5999,6.6083,6.6116,6.6073,6.6246,6.6283,6.6435,6.6483,6.6516,6.6547,6.6493,6.6703,6.6723,6.6741,6.6807,6.6833,6.6522,6.6521,6.6521,6.652,0,6.584,6.5931,6.6011,6.6094,6.615,6.6254,6.6266,6.6323,6.6313,6.6329,6.6456,6.6499,6.6584,6.6619,6.6609,6.6771,6.6746,6.6703,6.6625,6.6774,6.6837,6.6862,6.6531,6.6529,6.6527,6.6525,0,0,6.6062,6.6144,6.6173,6.6212,6.6279,6.6349,6.6452,6.6535,6.6585,6.6645,6.6731,6.685,6.6812,6.6858,6.6852,6.6925,6.7077,6.6874,6.6875,6.691,6.7259,6.7291,6.732,6.7058,6.7062,6.7066,6.7254,0,6.6241,6.6421,6.6422,6.6588,6.6673,6.6639,6.6729,6.678,6.6799,6.6873,6.6894,6.6979,6.6921,6.6949,6.7019,6.7043,6.7147,6.703,6.7138,6.7142,6.7124,6.7353,6.7386,6.7561,6.7278,6.7283,6.7286,0,6.6472,6.6541,6.6716,6.6773,6.6809,6.6889,6.6967,6.7039,6.7097,6.7105,6.7159,6.7143,6.7248,6.7168,6.7313,6.7234,6.7278,6.7297,6.7304,6.7313,6.7222,6.7369,6.7617,6.7643,6.7324,6.7321,6.7318,0,6.6618,6.6755,6.6878,6.6911,6.698,6.7038,6.7069,6.7122,6.7173,6.7241,6.7275,6.7354,6.7397,6.7459,6.7466,6.7406,6.7613,6.7532,6.7623,6.7623,6.7667,6.7664,6.7926,6.7696,6.7696,6.7695,6.7695,0,6.6817,6.6926,6.6944,6.702,6.7141,6.7141,6.7261,6.7288,6.7336,6.7416,6.7392,6.7468,6.7472,6.755,6.7556,6.7676,6.7696,6.7706,6.7706,6.7708,6.7707,6.7737,6.7725,6.7702,6.7701,6.7699,6.7698,0,6.7001,6.7017,6.7149,6.7205,6.7221,6.7308,6.7355,6.7428,6.7445,6.7548,6.7571,6.7599,6.769,6.7703,6.7809,6.7813,6.7957,6.7945,6.7938,6.7936,6.8027,6.8018,6.8317,6.8356,6.81,6.8103,6.8105,0,6.7126,6.721,6.7275,6.7327,6.7362,6.7447,6.7499,6.7503,6.7559,6.7632,6.7696,6.7785,6.7856,6.8003,6.8032,6.8114,6.8103,6.8202,6.8115,6.8115,6.8105,6.81,6.8109,6.8219,6.8222,6.8224,6.8226,0,6.7349,6.7353,6.743,6.7511,6.7574,6.7638,6.7698,6.7742,6.7754,6.7818,6.7911,6.7966,6.8076,6.8165,6.8246,6.8278,6.8255,6.8253,6.8279,6.8282,6.8275,6.828,6.7984,6.8246,6.8244,6.8243,6.8242,6.8241,6.7507,6.758,6.7638,6.7725,6.7771,6.7828,6.7899,6.7926,6.8004,6.8094,6.8092,6.8195,6.8252,6.8359,6.8397,6.8478,6.8445,6.8482,6.8491,6.8501,6.851,6.8262,6.8493,6.8492,6.8492,6.8491,6.8491,0,6.7729,6.7765,6.7845,6.793,6.7999,6.7972,6.8037,6.8096,6.8188,6.8243,6.8315,6.8423,6.8509,6.8546,6.8631,6.8689,6.8681,6.8711,6.8707,6.8715,6.8534,6.8503,6.8717,6.8717,6.8717,6.8717,6.8717,6.8717,6.7852,6.7974,6.7986,6.8132,6.8167,6.8268,6.8308,6.8361,6.8405,6.8528,6.86,6.8624,6.8673,6.8761,6.884,6.8848,6.8881,6.8917,6.8921,6.875,6.8728,6.8706,6.8677,6.8924,6.8924,6.9095,6.9097,6.9098]},{"header":{"parameterUnit":"m.s-1","parameterCategory":1,"la1":30.2991,"la2":30.254,"lo1":-89.0895,"lo2":-89.0444,"dy":0.0017,"dx":0.0017,"nx":28,"ny":28,"refTime":"2025-03-19T09:00:00:Z","depth":0,"parameterNumber":3,"parameterNumberName":"V-component_of_WINDS"},"data":[0,0,0,0,0,0,0,0,0,0,0,0,0,0,0,0,0,0,0,0,0,0,0,0,0,0,0,0,0,0,0,0,0,0,0,0,0,0,0,0,0,0,0,0,0,0,0,0,0,0,0,0,0,0,0,0,0,0,-7.8177,-7.8179,0,-7.8367,-7.837,-7.8372,-7.8326,-7.8322,-7.8319,-7.8315,-7.8507,-7.8515,-7.8523,0,0,0,0,0,0,0,0,0,0,0,0,0,-7.7772,-7.778,-7.8177,-7.8179,-7.8182,-7.8367,-7.837,-7.8372,-7.8327,-7.8322,-7.8318,-7.8314,-7.8504,-7.8514,-7.8524,0,0,0,0,0,0,0,0,0,0,0,0,0,-7.7953,-7.7782,-7.8177,-7.8182,-7.8184,-7.8367,-7.837,-7.8373,-7.8328,-7.8322,-7.8317,-7.8312,-7.85,-7.8513,-7.8525,-7.8714,0,0,-7.8564,-7.857,0,0,0,0,0,0,0,0,-7.7943,-7.7968,-7.8178,-7.8182,-7.8184,-7.8317,-7.8297,-7.8487,-7.8329,-7.8273,-7.8315,-7.8309,-7.8448,-7.8465,-7.8512,-7.8723,-7.8731,-7.8565,-7.8573,-7.8579,-7.8582,0,0,0,0,0,0,0,-7.7931,-7.796,-7.8252,-7.8181,-7.8185,-7.8173,-7.8193,-7.8333,-7.8389,-7.8277,-7.8275,-7.8298,-7.8448,-7.85,-7.8516,-7.8734,-7.8565,-7.8576,-7.8584,-7.8589,-7.9109,-7.9115,0,0,0,0,0,0,-7.7916,-7.795,-7.8246,-7.8258,-7.8048,-7.8185,-7.8207,-7.828,-7.8387,-7.8398,-7.8302,-7.8295,-7.8481,-7.8501,-7.8523,-7.8751,-7.8579,-7.859,-7.8598,-7.9103,-7.9111,-7.9117,0,0,0,0,0,0,-7.7908,-7.7943,-7.8238,-7.8103,-7.814,-7.8198,-7.828,-7.8287,-7.8338,-7.8406,-7.8415,-7.8345,-7.8477,-7.8505,-7.8667,-7.8757,-7.8596,-7.8608,-7.9096,-7.9106,-7.9114,-7.9209,0,0,0,0,0,0,-7.7896,-7.794,-7.8013,-7.8105,-7.8147,-7.8381,-7.8286,-7.8295,-7.8361,-7.8353,-7.8449,-7.8459,-7.8475,-7.8648,-7.868,-7.8772,-7.8618,-7.9088,-7.91,-7.9111,-7.9198,-7.922,-7.924,0,0,0,0,0,-7.7882,-7.8031,-7.8017,-7.8053,-7.824,-7.8386,-7.841,-7.8427,-7.8368,-7.8442,-7.8485,-7.8456,-7.8742,-7.8665,-7.87,-7.8798,-7.9083,-7.9097,-7.911,-7.9189,-7.9216,-7.9239,0,0,0,0,0,0,-7.7946,-7.8043,-7.8028,-7.8212,-7.8292,-7.8378,-7.8471,-7.8455,-7.8551,-7.854,-7.8555,-7.8577,-7.8743,-7.8786,-7.8699,-7.8986,-7.8904,-7.8925,-7.8952,-7.8978,-7.8998,-7.8984,-7.8628,0,0,0,0,0,-7.7982,-7.8094,-7.8172,-7.8326,-7.8367,-7.8413,-7.8477,-7.8483,-7.8565,-7.8598,-7.8653,-7.8733,-7.8841,-7.8912,-7.9015,-7.9204,-7.9224,-7.9288,-7.9309,-7.9326,-7.9344,-7.9448,-7.9478,-7.9163,-7.9163,-7.9163,0,0,-7.8056,-7.8123,-7.8193,-7.8341,-7.8403,-7.8518,-7.8441,-7.8565,-7.865,-7.8616,-7.8774,-7.8817,-7.8907,-7.9084,-7.9165,-7.9126,-7.9436,-7.9343,-7.9356,-7.9366,-7.9465,-7.9495,-7.9522,-7.9172,-7.9171,-7.9169,0,0,-7.8251,-7.8313,-7.8449,-7.8513,-7.8609,-7.8639,-7.8671,-7.8761,-7.8789,-7.8948,-7.8925,-7.9026,-7.9212,-7.9277,-7.9335,-7.9556,-7.9533,-7.9589,-7.9697,-7.9798,-7.9823,-7.9845,-7.9925,-7.9953,-7.9607,-7.9608,-7.9608,0,-7.8331,-7.8505,-7.8521,-7.8648,-7.8714,-7.8691,-7.8828,-7.8889,-7.9013,-7.9059,-7.9014,-7.9247,-7.9306,-7.9499,-7.9553,-7.96,-7.9638,-7.9578,-7.9819,-7.9841,-7.9862,-7.9938,-7.9967,-7.9614,-7.9613,-7.9613,-7.9612,0,-7.8599,-7.8719,-7.8817,-7.894,-7.9017,-7.9149,-7.9184,-7.926,-7.926,-7.9294,-7.9456,-7.9526,-7.9644,-7.969,-7.969,-7.9883,-7.9856,-7.9815,-7.9732,-7.9898,-7.9969,-7.9998,-7.9623,-7.9621,-7.9619,-7.9617,0,0,-7.8839,-7.8969,-7.9005,-7.9061,-7.9165,-7.9258,-7.9389,-7.9505,-7.957,-7.9657,-7.9767,-7.9925,-7.9889,-7.9954,-7.9962,-8.0051,-8.0222,-7.9999,-8.0001,-8.0038,-8.044,-8.047,-8.0503,-8.0208,-8.0213,-8.0218,-8.0432,0,-7.9043,-7.9275,-7.9294,-7.9502,-7.9614,-7.9594,-7.9708,-7.9784,-7.9819,-7.9919,-7.9957,-8.007,-8.0012,-8.0052,-8.0139,-8.0183,-8.0303,-8.0168,-8.031,-8.0314,-8.0288,-8.0541,-8.0573,-8.0772,-8.046,-8.0465,-8.0468,0,-7.9312,-7.9409,-7.9629,-7.9719,-7.9766,-7.9869,-7.9977,-8.0073,-8.0159,-8.0178,-8.0253,-8.0248,-8.0382,-8.0296,-8.048,-8.0388,-8.0447,-8.0478,-8.0486,-8.0499,-8.0401,-8.0562,-8.0836,-8.0866,-8.0512,-8.0509,-8.0506,0,-7.9466,-7.9651,-7.9807,-7.9855,-7.9963,-8.0036,-8.0084,-8.0165,-8.0234,-8.0329,-8.0374,-8.0482,-8.0542,-8.0625,-8.0651,-8.0585,-8.0835,-8.075,-8.0855,-8.0854,-8.0908,-8.0904,-8.1196,-8.0946,-8.0946,-8.0945,-8.0944,0,-7.9693,-7.9828,-7.9877,-7.9973,-8.0124,-8.0145,-8.0294,-8.0338,-8.041,-8.0514,-8.0502,-8.0599,-8.0626,-8.0729,-8.0749,-8.0899,-8.0926,-8.0945,-8.0949,-8.0947,-8.0944,-8.0986,-8.0972,-8.0953,-8.0951,-8.095,-8.0948,0,-7.989,-7.9928,-8.0097,-8.0186,-8.0212,-8.032,-8.0396,-8.0488,-8.0522,-8.0654,-8.0686,-8.0739,-8.0859,-8.0893,-8.1035,-8.1049,-8.1226,-8.1217,-8.1198,-8.1198,-8.1301,-8.1291,-8.1629,-8.1675,-8.1395,-8.1397,-8.1399,0,-8.0032,-8.0136,-8.0237,-8.0307,-8.0359,-8.047,-8.0541,-8.0565,-8.0639,-8.0746,-8.0825,-8.0944,-8.104,-8.1232,-8.1283,-8.1393,-8.1386,-8.1498,-8.1403,-8.1397,-8.1389,-8.1382,-8.1393,-8.1515,-8.1518,-8.1521,-8.1523,0,-8.028,-8.0295,-8.0398,-8.0509,-8.0594,-8.0682,-8.0767,-8.0824,-8.086,-8.0944,-8.1067,-8.1142,-8.1289,-8.1407,-8.1518,-8.1567,-8.1552,-8.1552,-8.1582,-8.1581,-8.1566,-8.1576,-8.1247,-8.1544,-8.1542,-8.1541,-8.1539,-8.1539,-8.0455,-8.0547,-8.0633,-8.0749,-8.0815,-8.0895,-8.0986,-8.1032,-8.1136,-8.1259,-8.1266,-8.14,-8.1484,-8.1632,-8.1687,-8.1791,-8.1758,-8.1802,-8.1813,-8.1823,-8.1832,-8.1549,-8.1811,-8.1811,-8.181,-8.181,-8.1809,0,-8.0703,-8.0758,-8.0864,-8.0984,-8.1075,-8.1054,-8.1146,-8.1224,-8.1342,-8.1422,-8.1518,-8.1659,-8.1774,-8.1835,-8.1949,-8.2021,-8.2016,-8.205,-8.2045,-8.2056,-8.1855,-8.1818,-8.2051,-8.2051,-8.2051,-8.2051,-8.2051,-8.2051,-8.0843,-8.0998,-8.1023,-8.121,-8.1264,-8.1396,-8.1451,-8.1524,-8.1588,-8.1747,-8.1843,-8.1882,-8.1955,-8.2074,-8.2178,-8.2193,-8.2236,-8.2273,-8.2284,-8.2095,-8.207,-8.2047,-8.2012,-8.2282,-8.2282,-8.2477,-8.2478,-8.248]}]]